Flag for Latvia Weather past 2 weeks in Jelgava, Latvia

45 °F

Passing clouds.

Feels Like: 41 °F
Forecast: 26 / 44 °F
Wind: 7 mph from Southeast

Location: Riga Airport

Current Time: Oct 7, 2015 at 1:37:52 PM

Latest Report: Oct 7, 2015 at 1:20 PM

Visibility: N/A

Pressure: 30.42 "Hg

Humidity: 61%

Dew point: 32 °F

Location of JelgavaLocation

Historic Weather in Jelgava — Graph


Jelgava temperature yesterday

Maximum temperature yesterday: 48 °F (at 1:50 PM)
Minimum temperature yesterday: 36 °F (at 7:20 AM)
Average temperature yesterday: 42 °F

Past Weeks' High & Low Weather Summary

High70 °F (Sep 24, 2:20 PM)100% (Sep 22, 9:50 PM)30.66 "Hg (Sep 22, 9:50 PM)
Low27 °F (Oct 7, 5:50 AM)46% (Oct 6, 1:50 PM)29.89 "Hg (Oct 2, 7:20 PM)
Average53 °F84%30.16 "Hg
* Reported Sep 22 12:20 PM — Oct 7 12:20 PM, Jelgava, Weather by CustomWeather, © 2015

Note: Actual official high and low records may vary slightly from our data, if they occured in-between our weather recording intervals... More about our weather records


Jelgava weather history for previous 24 hours

Time TempWeatherWind HumidityBarometerVisibility
12:20 PM
Wed, Oct 7
43 °FPassing clouds.9 mph61%30.42 "HgN/A
11:50 AM43 °FSunny.10 mph66%30.42 "Hg10 mi
11:20 AM41 °FPassing clouds.7 mph76%30.42 "HgN/A
10:50 AM39 °FPassing clouds.5 mph75%30.42 "HgN/A
10:20 AM39 °FSunny.8 mph75%30.42 "Hg10 mi
9:50 AM37 °FSunny.7 mph87%30.42 "Hg10 mi
9:20 AM36 °FSunny.5 mph87%30.42 "Hg10 mi
8:50 AM32 °FSunny.5 mph93%30.42 "Hg10 mi
8:20 AM30 °FClear.3 mph93%30.42 "Hg10 mi
7:50 AM27 °FClear.2 mph93%30.39 "Hg10 mi
7:20 AM30 °FClear.No wind93%30.39 "Hg10 mi
6:50 AM28 °FPassing clouds.3 mph93%30.39 "HgN/A
6:20 AM28 °FClear.5 mph100%30.39 "Hg10 mi
5:50 AM27 °FClear.3 mph100%30.39 "Hg10 mi
5:20 AM28 °FClear.3 mph93%30.39 "Hg10 mi
4:50 AM30 °FClear.3 mph93%30.39 "Hg10 mi
4:20 AM28 °FClear.5 mph100%30.39 "Hg10 mi
3:50 AM30 °FClear.5 mph93%30.36 "Hg10 mi
3:20 AM30 °FClear.3 mph93%30.36 "Hg10 mi
2:50 AM34 °FClear.3 mph81%30.36 "Hg10 mi
2:20 AM36 °FClear.5 mph75%30.36 "Hg10 mi
1:50 AM34 °FClear.5 mph81%30.36 "Hg10 mi
12:20 AM34 °FClear.6 mph81%30.33 "Hg10 mi
11:50 PM
Tue, Oct 6
37 °FClear.7 mph70%30.33 "Hg10 mi
11:20 PM39 °FClear.6 mph65%30.33 "Hg10 mi
10:50 PM37 °FClear.6 mph70%30.33 "Hg10 mi
10:20 PM39 °FClear.6 mph65%30.30 "Hg10 mi
9:50 PM41 °FClear.6 mph61%30.30 "Hg10 mi
9:20 PM39 °FClear.7 mph70%30.30 "Hg10 mi
8:50 PM41 °FClear.7 mph66%30.27 "Hg10 mi
8:20 PM41 °FClear.8 mph66%30.27 "Hg10 mi
7:50 PM43 °FClear.9 mph61%30.27 "Hg10 mi
7:20 PM43 °FSunny.10 mph57%30.27 "Hg10 mi
6:50 PM45 °FSunny.14 mph57%30.24 "Hg10 mi
6:20 PM46 °FSunny.13 mph53%30.24 "Hg10 mi
5:50 PM46 °FSunny.9 mph53%30.24 "Hg10 mi
5:20 PM46 °FSunny.15 mph50%30.24 "Hg10 mi
4:50 PM48 °FSunny.13 mph50%30.24 "Hg10 mi
4:20 PM48 °FSunny.14 mph46%30.24 "Hg10 mi
3:50 PM48 °FSunny.12 mph50%30.24 "Hg10 mi
3:20 PM48 °FPassing clouds.10 mph54%30.24 "HgN/A
2:50 PM48 °FPassing clouds.10 mph46%30.24 "HgN/A
2:20 PM48 °FPassing clouds.10 mph50%30.24 "HgN/A
1:50 PM48 °FSunny.15 mph46%30.24 "Hg10 mi
1:20 PM46 °FPassing clouds.13 mph53%30.24 "HgN/A
Weather by CustomWeather, © 2015

See weather overviewHow to use our weather pages